LVMGN SAZS-SAZB

Flight info

Callsign LVMGN
Flight time N/A
Altitude 29000
Route ORERA1G ORERA UW34 EKOPA/N0280F230 W34 GENAX
Aircraft SF50/L-SDGRWY/L

Departure

Time 2026-05-05 17:11
Airport Teniente Luis Candelaria International Airport (SAZS)

Arrival

Time N/A
Airport Comandante Espora Airport (SAZB)
Time Latitude Longitude Altitude Speed Heading
2026-05-05 16:59 -41.14705 -71.16263 2778 ft 0 kts 296°
2026-05-05 17:08 -41.14700 -71.16264 2778 ft 2 kts 31°
2026-05-05 17:08 -41.14719 -71.16257 2778 ft 5 kts 201°
2026-05-05 17:09 -41.14761 -71.16271 2778 ft 7 kts 190°
2026-05-05 17:09 -41.14819 -71.16298 2778 ft 9 kts 201°
2026-05-05 17:09 -41.14895 -71.16321 2778 ft 14 kts 154°
2026-05-05 17:09 -41.14940 -71.16245 2778 ft 0 kts 119°
2026-05-05 17:10 -41.14973 -71.16170 2778 ft 37 kts 122°
2026-05-05 17:11 -41.15177 -71.15590 2779 ft 99 kts 116°
2026-05-05 17:11 -41.15495 -71.14683 3009 ft 121 kts 117°
2026-05-05 17:11 -41.15853 -71.13577 3313 ft 139 kts 114°
2026-05-05 17:11 -41.16072 -71.12279 3615 ft 156 kts 86°
2026-05-05 17:12 -41.15532 -71.10947 3840 ft 180 kts 40°
2026-05-05 17:12 -41.14341 -71.10413 4137 ft 198 kts 356°
2026-05-05 17:12 -41.12930 -71.10601 4423 ft 214 kts
2026-05-05 17:12 -41.11628 -71.09587 4707 ft 227 kts 52°
2026-05-05 17:13 -41.11118 -71.07627 4980 ft 234 kts 92°
2026-05-05 17:13 -41.11604 -71.05559 5265 ft 240 kts 118°
2026-05-05 17:13 -41.12401 -71.03584 5545 ft 247 kts 120°
2026-05-05 17:13 -41.13235 -71.01564 5825 ft 252 kts 120°
2026-05-05 17:14 -41.14082 -70.99511 6103 ft 256 kts 120°
2026-05-05 17:14 -41.14940 -70.97432 6380 ft 259 kts 120°
2026-05-05 17:14 -41.15810 -70.95320 6658 ft 262 kts 120°
2026-05-05 17:14 -41.16243 -70.92969 6928 ft 266 kts 91°
2026-05-05 17:15 -41.15948 -70.90562 7203 ft 269 kts 74°
2026-05-05 17:15 -41.15281 -70.88214 7484 ft 270 kts 67°
2026-05-05 17:15 -41.14469 -70.85948 7787 ft 275 kts 63°
2026-05-05 17:15 -41.13596 -70.83713 8168 ft 274 kts 62°
2026-05-05 17:16 -41.12693 -70.81481 8444 ft 275 kts 62°
2026-05-05 17:16 -41.11784 -70.79267 8718 ft 276 kts 61°
2026-05-05 17:16 -41.10866 -70.77048 8992 ft 276 kts 61°
2026-05-05 17:16 -41.09939 -70.74813 9268 ft 276 kts 61°
2026-05-05 17:17 -41.09021 -70.72603 9541 ft 278 kts 61°
2026-05-05 17:17 -41.08076 -70.70331 9881 ft 280 kts 60°
2026-05-05 17:17 -41.07140 -70.68084 10236 ft 281 kts 60°
2026-05-05 17:17 -41.06191 -70.65807 10582 ft 282 kts 60°
2026-05-05 17:18 -41.05248 -70.63543 10919 ft 283 kts 60°
2026-05-05 17:18 -41.04293 -70.61256 11251 ft 283 kts 60°
2026-05-05 17:18 -41.03344 -70.58984 11570 ft 284 kts 60°
2026-05-05 17:18 -41.02389 -70.56699 11880 ft 284 kts 60°
2026-05-05 17:19 -41.01423 -70.54390 12185 ft 284 kts 60°
2026-05-05 17:19 -41.00467 -70.52106 12484 ft 284 kts 60°
2026-05-05 17:19 -40.99510 -70.49822 12782 ft 284 kts 60°
2026-05-05 17:19 -40.98557 -70.47546 13080 ft 284 kts 60°
2026-05-05 17:20 -40.97631 -70.45248 13370 ft 284 kts 66°
2026-05-05 17:20 -40.96979 -70.42818 13667 ft 284 kts 71°
2026-05-05 17:20 -40.96387 -70.40330 13968 ft 283 kts 72°
2026-05-05 17:20 -40.95810 -70.37844 14265 ft 281 kts 72°
2026-05-05 17:21 -40.95242 -70.35374 14562 ft 279 kts 72°
2026-05-05 17:21 -40.94684 -70.32944 14857 ft 278 kts 72°
2026-05-05 17:21 -40.94120 -70.30485 15158 ft 277 kts 72°
2026-05-05 17:22 -40.93010 -70.25654 15754 ft 274 kts 72°
2026-05-05 17:22 -40.92460 -70.23267 16051 ft 272 kts 72°
2026-05-05 17:22 -40.91909 -70.20877 16350 ft 271 kts 72°
2026-05-05 17:22 -40.91367 -70.18526 16645 ft 270 kts 72°
2026-05-05 17:23 -40.90818 -70.16148 16945 ft 268 kts 72°
2026-05-05 17:23 -40.90278 -70.13811 17242 ft 267 kts 72°
2026-05-05 17:23 -40.89738 -70.11478 17541 ft 266 kts 72°
2026-05-05 17:23 -40.89199 -70.09151 17841 ft 264 kts 73°
2026-05-05 17:24 -40.88663 -70.06835 18142 ft 263 kts 73°
2026-05-05 17:24 -40.88131 -70.04546 18440 ft 262 kts 73°
2026-05-05 17:24 -40.87598 -70.02250 18741 ft 260 kts 73°
2026-05-05 17:24 -40.87073 -69.99991 19038 ft 259 kts 73°
2026-05-05 17:25 -40.86541 -69.97709 19339 ft 258 kts 73°
2026-05-05 17:25 -40.86196 -69.96224 19536 ft 257 kts 74°
2026-05-05 17:25 -40.85497 -69.93229 19935 ft 255 kts 74°
2026-05-05 17:25 -40.84980 -69.91014 20232 ft 254 kts 74°
2026-05-05 17:26 -40.84460 -69.88790 20531 ft 252 kts 75°
2026-05-05 17:26 -40.83947 -69.86595 20827 ft 251 kts 75°
2026-05-05 17:26 -40.83431 -69.84394 21125 ft 250 kts 75°
2026-05-05 17:26 -40.82919 -69.82209 21423 ft 248 kts 75°
2026-05-05 17:27 -40.82414 -69.80054 21717 ft 247 kts 75°
2026-05-05 17:27 -40.81908 -69.77902 22012 ft 246 kts 76°
2026-05-05 17:27 -40.81401 -69.75745 22309 ft 245 kts 76°
2026-05-05 17:27 -40.80899 -69.73611 22605 ft 243 kts 76°
2026-05-05 17:28 -40.80397 -69.71479 22901 ft 242 kts 77°
2026-05-05 17:28 -40.79892 -69.69333 23200 ft 241 kts 77°
2026-05-05 17:28 -40.79398 -69.67240 23493 ft 240 kts 77°
2026-05-05 17:28 -40.78905 -69.65152 23786 ft 238 kts 77°
2026-05-05 17:29 -40.78413 -69.63071 24080 ft 237 kts 78°
2026-05-05 17:29 -40.77922 -69.60995 24374 ft 236 kts 78°
2026-05-05 17:29 -40.77438 -69.58952 24665 ft 235 kts 78°
2026-05-05 17:29 -40.76952 -69.56899 24958 ft 233 kts 79°
2026-05-05 17:30 -40.76469 -69.54863 25251 ft 232 kts 79°
2026-05-05 17:30 -40.75993 -69.52857 25540 ft 231 kts 79°
2026-05-05 17:30 -40.75513 -69.50839 25833 ft 229 kts 79°
2026-05-05 17:30 -40.75041 -69.48853 26123 ft 228 kts 80°
2026-05-05 17:31 -40.74566 -69.46860 26416 ft 226 kts 80°
2026-05-05 17:31 -40.74103 -69.44915 26703 ft 225 kts 81°
2026-05-05 17:31 -40.73635 -69.42954 26994 ft 223 kts 81°
2026-05-05 17:31 -40.73173 -69.41016 27284 ft 221 kts 81°
2026-05-05 17:32 -40.72703 -69.39050 27580 ft 219 kts 82°
2026-05-05 17:32 -40.72246 -69.37138 27871 ft 217 kts 82°
2026-05-05 17:32 -40.71795 -69.35251 28160 ft 215 kts 82°
2026-05-05 17:32 -40.71350 -69.33397 28451 ft 213 kts 82°
2026-05-05 17:33 -40.70908 -69.31548 28745 ft 211 kts 82°
2026-05-05 17:33 -40.70463 -69.29684 28894 ft 216 kts 82°
2026-05-05 17:33 -40.70003 -69.27749 28913 ft 227 kts 82°
2026-05-05 17:33 -40.69523 -69.25742 28918 ft 238 kts 81°
2026-05-05 17:34 -40.69011 -69.23608 28922 ft 248 kts 81°
2026-05-05 17:34 -40.68481 -69.21411 28927 ft 256 kts 81°
2026-05-05 17:34 -40.67934 -69.19144 28932 ft 264 kts 80°
2026-05-05 17:34 -40.67371 -69.16813 28939 ft 271 kts 80°
2026-05-05 17:35 -40.66793 -69.14423 28946 ft 277 kts 80°
2026-05-05 17:35 -40.66205 -69.11990 28954 ft 282 kts 80°
2026-05-05 17:35 -40.65606 -69.09516 28958 ft 287 kts 74°
2026-05-05 17:35 -40.64984 -69.06920 28960 ft 296 kts 74°
2026-05-05 17:36 -40.64354 -69.04343 28965 ft 304 kts 75°
2026-05-05 17:36 -40.63032 -68.98917 28967 ft 318 kts 76°
2026-05-05 17:37 -40.61660 -68.93277 28967 ft 329 kts 76°
2026-05-05 17:37 -40.60252 -68.87508 28967 ft 336 kts 77°
2026-05-05 17:38 -40.58803 -68.81581 28967 ft 342 kts 77°
2026-05-05 17:38 -40.57341 -68.75617 28967 ft 346 kts 77°
2026-05-05 17:39 -40.55854 -68.69572 28967 ft 349 kts 77°
2026-05-05 17:39 -40.54337 -68.63419 28968 ft 352 kts 77°
2026-05-05 17:40 -40.52826 -68.57301 28968 ft 353 kts 77°
2026-05-05 17:40 -40.51307 -68.51172 28969 ft 355 kts 77°
2026-05-05 17:41 -40.49775 -68.45007 28969 ft 356 kts 77°
2026-05-05 17:41 -40.49519 -68.43976 28969 ft 356 kts 77°
2026-05-05 17:42 -40.46638 -68.32424 28965 ft 357 kts 76°